Flag for Kazakhstan Weather past 2 weeks in Astana, Kazakhstan

Now
5 °F

Clear.


Feels Like: -13 °F
Forecast: 2 / 19 °F
Wind: 15 mph from Northeast

Location: Astana

Current Time: Mar 30, 2015 at 3:26:11 AM

Latest Report: Mar 30, 2015 at 3:00 AM


Visibility: 10 mi

Pressure: 30.39 "Hg

Humidity: 78%

Dew point: 0 °F

Location of AstanaLocation

Historic Weather in Astana — Graph

°F

Astana temperature yesterday

Maximum temperature yesterday: 10 °F (at 4:00 PM)
Minimum temperature yesterday: -2 °F (at 5:30 AM)
Average temperature yesterday: 4 °F

Past Weeks' High & Low Weather Summary

 TemperatureHumidityPressure
High37 °F (Mar 22, 5:00 PM)100% (Mar 23, 7:30 AM)30.57 "Hg (Mar 23, 7:30 AM)
Low-2 °F (Mar 29, 5:30 AM)59% (Mar 17, 11:30 AM)29.42 "Hg (Mar 24, 1:00 PM)
Average20 °F85%30.18 "Hg
* Reported Mar 15 2:00 AM — Mar 30 2:00 AM, Astana, Weather by CustomWeather, © 2015

Note: Actual official high and low records may vary slightly from our data, if they occured in-between our weather recording intervals... More about our weather records

Advertising

Astana weather history for previous 24 hours

 ConditionsComfort  
Time TempWeatherWind HumidityBarometerVisibility
2:00 AM
Mon, Mar 30
7 °FPassing clouds.15 mph78%30.39 "HgN/A
1:30 AM5 °FLight snow. Overcast.17 mph85%30.39 "Hg6 mi
1:00 AM5 °FLight snow. Mostly cloudy.17 mph85%30.39 "Hg5 mi
12:30 AM5 °FLight snow. Low clouds.20 mph85%30.39 "Hg3 mi
12:00 AM7 °FSnow. Low clouds.24 mph85%30.39 "Hg1 mi
11:30 PM
Sun, Mar 29
7 °FSnow. Overcast.22 mph85%30.39 "Hg2 mi
11:00 PM7 °FSnow. Partly cloudy.22 mph78%30.39 "Hg2 mi
10:30 PM5 °FLight snow. Partly cloudy.22 mph85%30.42 "Hg3 mi
10:00 PM5 °FPassing clouds.17 mph85%30.42 "Hg4 mi
9:30 PM5 °FPassing clouds.17 mph85%30.42 "Hg6 mi
9:00 PM7 °FPassing clouds.20 mph78%30.42 "Hg6 mi
8:30 PM7 °FScattered clouds.22 mph78%30.42 "Hg3 mi
8:00 PM7 °FLight snow. Broken clouds.22 mph85%30.42 "Hg2 mi
7:30 PM9 °FPartly sunny.22 mph78%30.42 "Hg4 mi
7:00 PM9 °FPartly sunny.20 mph78%30.42 "Hg2 mi
6:30 PM9 °FPartly sunny.24 mph78%30.42 "Hg3 mi
6:00 PM9 °FBroken clouds.24 mph78%30.42 "Hg2 mi
5:30 PM9 °FBroken clouds.24 mph78%30.42 "Hg2 mi
5:00 PM10 °FBroken clouds.24 mph72%30.42 "Hg2 mi
4:30 PM10 °FBroken clouds.26 mph72%30.42 "Hg1 mi
4:00 PM10 °FBroken clouds.26 mph72%30.42 "Hg1 mi
3:30 PM9 °FBroken clouds.24 mph78%30.42 "Hg1 mi
3:00 PM9 °FScattered clouds.26 mph78%30.42 "Hg1 mi
2:30 PM9 °FScattered clouds.29 mph78%30.42 "Hg2 mi
2:00 PM9 °FScattered clouds.22 mph72%30.42 "Hg2 mi
1:30 PM9 °FScattered clouds.24 mph72%30.42 "Hg2 mi
1:00 PM7 °FScattered clouds.24 mph78%30.42 "Hg2 mi
12:30 PM7 °FScattered clouds.20 mph72%30.42 "Hg6 mi
12:00 PM5 °FPartly sunny.20 mph78%30.42 "Hg6 mi
11:30 AM3 °FPartly sunny.20 mph78%30.45 "Hg2 mi
11:00 AM3 °FBroken clouds.22 mph78%30.45 "Hg4 mi
10:30 AM1 °FBroken clouds.20 mph78%30.45 "Hg4 mi
10:00 AM1 °FBroken clouds.20 mph78%30.45 "Hg4 mi
9:30 AM0 °FScattered clouds.17 mph78%30.45 "Hg6 mi
9:00 AM0 °FScattered clouds.17 mph78%30.42 "Hg6 mi
8:30 AM0 °FScattered clouds.15 mph78%30.42 "Hg4 mi
8:00 AM-2 °FScattered clouds.15 mph84%30.42 "Hg4 mi
7:30 AM-2 °FPassing clouds.13 mph84%30.42 "Hg5 mi
7:00 AM-2 °FPassing clouds.13 mph77%30.39 "HgN/A
6:30 AM-2 °FPassing clouds.13 mph84%30.39 "Hg4 mi
6:00 AM-2 °FPassing clouds.15 mph84%30.39 "Hg4 mi
5:30 AM-2 °FPassing clouds.13 mph84%30.39 "HgN/A
5:00 AM0 °FPassing clouds.15 mph78%30.39 "HgN/A
4:30 AM0 °FLight snow. Mostly cloudy.13 mph84%30.39 "HgN/A
4:00 AM0 °FLight snow. Mostly cloudy.13 mph84%30.39 "HgN/A
3:30 AM1 °FLight snow. Mostly cloudy.13 mph78%30.36 "HgN/A
Weather by CustomWeather, © 2015

See weather overviewHow to use our weather pages